Regional Weather Roundup
Issued by NWS Cleveland, OH

Home | Current Version | Previous Version | Text Only | Print | Product List | Glossary Off
Versions: 1 2 3 4 5 6 7 8 9 10 11 12 13 14 15 16 17 18 19 20 21 22 23 24 25 26 27 28 29 30 31 32 33 34 35 36 37 38 39 40 41 42 43 44 45 46 47 48 49 50

643
ASUS41 KCLE 031210
RWRCLE
OHIO REGIONAL WEATHER ROUNDUP
NATIONAL WEATHER SERVICE CLEVELAND, OH
700 AM EST SAT DEC 03 2016

NOTE: "FAIR" INDICATES FEW OR NO CLOUDS BELOW 12,000 FEET WITH NO
SIGNIFICANT WEATHER AND/OR OBSTRUCTIONS TO VISIBILITY.

OHZ001>008-015>018-024>027-034-035-043-044-031300-
   NORTHWEST OHIO

CITY           SKY/WX    TMP DP  RH WIND       PRES   REMARKS
DEFIANCE       CLOUDY    36  28  73 CALM      30.32R
FINDLAY        CLOUDY    34  28  79 W6        30.31R WCI  29
TOLEDO EXPRESS CLOUDY    35  31  85 W7        30.30R WCI  29
TOLEDO EXEC    CLOUDY    37  31  78 W10       30.31R
LIMA           CLOUDY    35  28  75 NW9       30.31R WCI  28
$$

OHZ009>014-019>023-028>033-038-089-031300-
   NORTHEAST OHIO

CITY           SKY/WX    TMP DP  RH WIND       PRES   REMARKS
CLE-HOPKINS    CLOUDY    37  29  72 SW8       30.30R
CLE-LAKEFRONT  CLOUDY    40  32  73 W14       30.27R
CUY CO. ARPT   CLOUDY    39  34  81 NW14      30.26
LORAIN-ELYRIA  CLOUDY    35  27  72 W7        30.30R WCI  29
ASHTABULA      CLOUDY    38  33  82 NW8       30.22S
AKRON-CANTON   FLURRIES  35  28  75 W6        30.27R
WOOSTER        CLOUDY    34  28  79 W7        30.29R WCI  28
MANSFIELD      CLOUDY    32  27  81 W7        30.28R WCI  26
YOUNGSTOWN     CLOUDY    35  29  78 W8        30.23R WCI  29
$$

OHZ042-051>053-060>062-070>072-077>081-031300-
  SOUTHWEST OHIO

CITY           SKY/WX    TMP DP  RH WIND       PRES   REMARKS
CINC-COVINGTON CLOUDY    36  34  92 W5        30.33S
CINC-LUNKEN    CLOUDY    38  34  85 SW3       30.36S
HAMILTON       CLOUDY    38  33  82 W3        30.36R
DAYTON         CLOUDY    36  32  85 W6        30.33R
WRIGHT-PAT AFB CLOUDY    37  32  83 W3        30.33R
DAYTON GENERAL CLOUDY    37  31  78 W5        30.32R
WILMINGTON     CLOUDY    36  32  85 W6        30.32R
$$

OHZ036-037-039>041-045>050-054>059-063>069-073>076-082>088-031300-
  CENTRAL AND SOUTHEAST OHIO

CITY           SKY/WX    TMP DP  RH WIND       PRES   REMARKS
COLUMBUS       CLOUDY    36  32  85 NW5       30.32R
OSU AIRPORT    CLOUDY    35  31  85 W3        30.32R
BOLTON FIELD   NOT AVBL
RICKENBACK AFB CLOUDY    35  32  88 W3        30.33R
NEWARK         CLOUDY    29  26  89 CALM      30.32R
MARION         CLOUDY    31  26  82 W3        30.31R
LANCASTER      CLOUDY    36  33  89 W3        30.33R
ZANESVILLE     MOCLDY    27  23  85 W3        30.32R
NEW PHILLY     NOT AVBL
$$




USA.gov is the U.S. government's official web portal to all federal, state and local government web resources and services.